Location: Malanoce
(44.2500°N, 7.4667°E)
Time: 05:51:49
(UTC+00:00)

ISS - Pass Details

Date: 17 November 2025
Orbit: 416 x 420 km, 51.6° (Epoch: 09 December)

Event Time Altitude Azimuth Distance (km) Brightness Sun altitude
Rises 18:45:17 0° 281° (WNW) 2,366 1.2 -29.2°
Reaches altitude 10° 18:47:40 10° 296° (WNW) 1,501 -0.2 -29.7°
Enters shadow 18:48:10 13° 302° (WNW) 1,340 -0.6 -29.7°
